Hourly Data Report for September 17, 2019

All times are specified in Local Standard Time (LST). Add 1 hour to adjust for Daylight Saving Time where and when it is observed.

EUREKA CLIMATE
NUNAVUT
Current Station Operator: ECCC - MSC

79°59'21.000" N
85°56'02.000" W
10.00 m
2401199
71613
NEK

Download Data

Hourly Data (September 2019)
Hourly Data Report for September 17, 2019
TIME Temp Definition
°C
Dew Point Definition
°C
Rel Hum Definition
%
Wind Dir Definition
10's deg

Wind Spd Definition
km/h
Visibility Definition
km
Stn Press Definition
kPa
Hmdx Definition


Wind Chill Definition


Weather Definition


00:00 -5.4 -5.8 97 2 11   102.30   -10 LegendNANA
01:00 -5.7 -6.0 98 2 13   102.32   -11 LegendNANA
02:00 -5.9 -6.2 98 2 12   102.34   -11 LegendNANA
03:00 -6.0 -6.3 98 2 12   102.35   -11 LegendNANA
04:00 -5.9 -6.1 98 2 10   102.37   -10 LegendNANA
05:00 -6.4 -6.6 98 2 12   102.39   -12 LegendNANA
06:00 -6.8 -7.3 96 2 12   102.42   -12 LegendNANA
07:00 -6.3 -6.8 97 2 10   102.42   -11 LegendNANA
08:00 -5.4 -5.6 99 2 8   102.43   -9 LegendNANA
09:00 -5.1 -5.2 99 1 9   102.43   -9 LegendNANA
10:00 -5.4 -5.6 98 1 9   102.44   -9 LegendNANA
11:00 -4.9 -5.1 98 3 5   102.45   -7 LegendNANA
12:00 -4.7 -5.0 98 7 4   102.46   -6 LegendNANA
13:00 -5.0 -5.3 98 14 2   102.47   -6 LegendNANA
14:00 -5.2 -5.5 98 16 4   102.48   -7 LegendNANA
15:00 -5.4 -5.7 98 17 2   102.49   -6 LegendNANA
16:00 -6.1 -6.2 99 10 1   102.49   -7 LegendNANA
17:00 -6.9 -7.1 98 2 4   102.49   -9 LegendNANA
18:00 -7.6 -8.0 97 2 5   102.47   -10 LegendNANA
19:00 -8.0 -8.6 96 2 5   102.46   -11 LegendNANA
20:00 -8.7 -9.3 95 2 3   102.46   -10 LegendNANA
21:00 -8.3 -8.5 99 2 4   102.46   -10 LegendNANA
22:00 -9.3 -9.6 97 2 5   102.45   -12 LegendNANA
23:00 -9.9 -10.5 95 2 5   102.44   -13 LegendNANA

Notes on Data Quality.

Legend

  • E = Estimated
  • M = Missing
  • NA = Not Available
Date modified: